Regional Weather Roundup
Issued by NWS

Home | Current Version | Previous Version | Text Only | Print | Product List | Glossary Off
Versions: 1 2 3 4 5 6 7 8 9 10 11 12 13 14 15 16 17 18 19 20 21 22 23 24 25 26 27 28 29 30 31 32 33 34 35 36 37 38 39 40 41 42 43 44 45 46 47 48 49 50

000
ASUS43 KBIS 021810
RWRND

NORTH DAKOTA REGIONAL WEATHER ROUNDUP
NATIONAL WEATHER SERVICE BISMARCK ND
100 PM CDT SUN AUG 02 2015

NOTE: "FAIR" INDICATES FEW OR NO CLOUDS BELOW 12,000 FEET WITH NO
SIGNIFICANT WEATHER AND/OR OBSTRUCTIONS TO VISIBILITY.


NDZ001>003-009>011-017-021900-
NORTHWEST NORTH DAKOTA

CITY           SKY/WX    TMP DP  RH WIND       PRES   REMARKS
WILLISTON      SUNNY     77  50  38 N12G17    30.00F
6HR MIN TEMP:  54; 6HR MAX TEMP:  77;

MINOT          SUNNY     74  50  42 N9G17     29.95R
MINOT AFB      MOSUNNY   77  49  37 N8G18     29.94R
$$

NDZ018>021-031>035-040>046-021900-
SOUTHWEST NORTH DAKOTA

CITY           SKY/WX    TMP DP  RH WIND       PRES   REMARKS
BISMARCK       MOSUNNY   78  54  43 NW17      29.95S
6HR MIN TEMP:  62; 6HR MAX TEMP:  78;

DICKINSON      SUNNY     76  51  41 N8G20     29.99F
GARRISON         N/A     73  56  54 NW13      29.96S
6HR MIN TEMP:  59; 6HR MAX TEMP:  74;

HETTINGER ARPT SUNNY     79  49  34 N13G18    30.00F
$$

NDZ004>008-012>016-024-026-027-054-021900-
NORTHEAST NORTH DAKOTA

CITY           SKY/WX    TMP DP  RH WIND       PRES   REMARKS
GRAND FORKS    PTSUNNY   75  54  47 N14       29.81S
GRND FRKS AFB  MOSUNNY   74  52  45 NW17      29.82F
DEVILS LAKE    SUNNY     72  46  40 NW16      29.89R
$$

NDZ022-023-025-028>030-036>039-047>053-021900-
SOUTHEAST NORTH DAKOTA

CITY           SKY/WX    TMP DP  RH WIND       PRES   REMARKS
FARGO          PTSUNNY   75  56  51 N20       29.82R
6HR MIN TEMP:  67; 6HR MAX TEMP:  77; 6HR PCP: TRACE;

JAMESTOWN      PTSUNNY   73  57  57 NW17      29.89R
$$




USA.gov is the U.S. government's official web portal to all federal, state and local government web resources and services.